Location: Hysolar-Haus
(48.7436°N, 9.0965°E)
Time: 17:51:29
(UTC+00:00)

ISS - Visible Passes

Search period start: 14 May 2021 00:00
Search period end: 24 May 2021 00:00
Orbit: 417 x 422 km, 51.6° (Epoch: 14 May)

Date Brightness Start Highest point End Pass type
(mag) Time Alt. Az. Time Alt. Az. Time Alt. Az.
14 May -3.1 00:51:54 10° WNW 00:55:14 57° N 00:58:35 10° E visible
14 May -3.5 02:28:46 10° WNW 02:32:02 47° SSW 02:35:19 10° SE visible
14 May -3.3 20:50:47 10° SW 20:53:55 36° SSE 20:55:33 22° E visible
14 May -3.4 22:27:16 10° W 22:30:38 65° NNW 22:34:00 10° ENE visible
15 May -2.9 00:04:24 10° WNW 00:07:44 51° N 00:11:02 10° E visible
15 May -3.9 01:41:17 10° WNW 01:44:39 69° SSW 01:48:01 10° ESE visible
15 May -2.7 20:03:47 10° SSW 20:06:36 25° SE 20:09:25 10° E visible
15 May -3.8 21:39:46 10° WSW 21:43:09 81° NNW 21:46:33 10° ENE visible
15 May -2.8 23:16:54 10° WNW 23:20:11 49° N 23:23:30 10° ENE visible
16 May -3.8 00:53:49 10° WNW 00:57:13 88° NNE 01:00:36 10° ESE visible
16 May -2.5 02:31:02 10° W 02:33:43 22° SW 02:36:23 10° SSE visible
16 May -3.9 20:52:20 10° WSW 20:55:42 76° SSE 20:59:04 10° ENE visible
16 May -2.9 22:29:21 10° W 22:32:39 50° N 22:35:58 10° ENE visible
17 May -3.5 00:06:22 10° WNW 00:09:44 69° NNE 00:13:06 10° E visible
17 May -3.1 01:43:20 10° W 01:46:24 32° SW 01:49:27 10° SSE visible
17 May -3.7 20:04:59 10° SW 20:08:16 54° SSE 20:11:35 10° ENE visible
17 May -3.0 21:41:48 10° W 21:45:08 55° N 21:48:28 10° ENE visible
17 May -3.2 23:18:53 10° WNW 23:22:13 58° N 23:22:52 47° ENE visible
18 May -1.0 00:55:46 10° WNW 00:55:46 10° WNW 00:55:46 10° WNW visible
18 May -3.3 20:54:15 10° W 20:57:37 65° NNW 21:00:59 10° ENE visible
18 May -2.9 22:31:23 10° WNW 22:34:42 51° N 22:36:27 24° ENE visible
19 May -1.7 00:08:15 10° WNW 00:09:22 19° WNW 00:09:22 19° WNW visible
19 May -3.6 20:06:45 10° WSW 20:10:06 81° NNW 20:13:30 10° ENE visible
19 May -2.8 21:43:52 10° WNW 21:47:09 49° N 21:50:16 11° ENE visible
19 May -2.9 23:20:47 10° WNW 23:23:12 44° WNW 23:23:12 44° WNW visible
20 May -2.8 20:56:18 10° W 20:59:36 50° N 21:02:54 10° ENE visible
20 May -3.5 22:33:18 10° WNW 22:36:41 69° NNE 22:37:05 60° ENE visible
21 May -3.0 20:08:44 10° W 20:12:03 55° N 20:15:23 10° ENE visible
21 May -3.2 21:45:49 10° WNW 21:49:09 58° N 21:51:02 23° E visible
21 May -1.8 23:22:41 10° WNW 23:23:58 20° W 23:23:58 20° W visible
22 May -3.0 20:58:18 10° WNW 21:01:37 51° N 21:04:55 10° E visible
22 May -3.4 22:35:11 10° WNW 22:37:57 53° W 22:37:57 53° W visible
23 May -2.8 20:10:45 10° WNW 20:14:03 49° N 20:17:21 10° ENE visible
23 May -3.8 21:47:41 10° WNW 21:51:04 89° N 21:51:57 46° ESE visible
